Wind_Speed
44 44 43 45 49 51 53 57 59 61 63 65 67 70 72 73 75 78 82 87 91 94 96 97 98 98 94 92 89 84 81 79 77 75 73 71 68 67 68 68 70 71 73 76 78 80 81 81 82 83 83 83 84 84 84 83 83 82 81 81 81 81 81 82 83 84 85 86 86 85 85 84 83 82 80 79 77 75 73 71 70 68 67 66 65
43 43 41 42 46 49 52 56 59 60 62 65 67 70 72 73 76 79 83 88 92 95 98 99 100 100 96 93 90 85 82 80 78 76 74 72 69 67 66 67 69 71 73 74 76 77 76 75 76 77 78 79 80 80 81 82 82 81 81 81 81 81 81 82 83 84 85 85 84 83 82 79 76 73 70 68 67 66 65 64 63 62 61 60 60
42 42 40 40 44 47 50 53 58 59 61 65 67 69 73 74 77 80 84 88 93 96 99 101 101 101 98 95 91 87 83 82 79 76 74 73 70 66 65 67 68 70 70 71 72 72 71 70 71 72 74 75 77 78 80 81 81 81 81 81 81 81 81 82 83 84 84 82 80 77 72 69 65 63 62 61 60 59 57 56 54 53 53 52 52
40 41 40 39 42 45 48 51 56 58 60 65 66 68 73 75 77 81 85 89 92 96 100 102 103 102 100 97 94 89 86 83 80 78 76 74 70 66 64 65 67 68 68 69 70 69 67 67 68 69 71 72 75 77 78 78 79 80 80 80 80 81 81 80 79 78 75 72 68 64 62 60 58 57 56 55 53 51 49 46 44 43 42 41 42
40 40 39 39 40 43 46 49 54 57 60 64 66 69 74 76 77 82 85 88 92 96 100 103 104 103 101 99 95 92 88 85 83 80 77 74 70 66 63 63 64 65 67 69 69 68 66 66 67 68 68 68 70 71 72 73 75 76 76 76 76 75 73 71 68 65 62 60 58 57 56 55 54 53 51 49 48 46 44 41 39 36 34 33 33
40 39 39 39 39 42 44 48 53 56 59 64 66 69 74 76 78 82 85 88 92 96 100 103 104 104 102 99 97 94 90 88 85 82 78 74 71 67 64 62 62 64 67 68 69 68 67 67 67 67 66 66 66 66 67 68 69 69 69 69 68 66 63 61 58 57 55 55 54 54 53 52 51 50 48 48 46 44 42 40 38 35 33 31 31
40 39 39 39 39 41 44 47 51 55 58 63 67 70 74 76 78 82 84 86 90 94 98 101 103 104 104 101 98 96 93 89 87 84 80 76 71 67 63 61 60 62 65 67 68 68 68 68 68 67 66 66 66 66 66 66 66 65 64 63 61 59 57 55 54 53 52 52 52 51 51 50 50 49 49 48 47 44 42 40 37 35 33 32 32
41 38 37 39 40 41 43 46 49 53 57 63 67 70 74 76 78 81 83 84 88 91 95 99 102 105 106 103 99 97 94 90 87 84 80 76 71 67 63 61 59 60 63 65 66 67 67 68 67 66 67 67 67 67 66 65 63 62 60 58 56 54 53 53 52 52 51 51 51 51 51 51 50 50 49 48 46 44 41 38 36 35 34 33 32
41 39 36 37 39 41 43 45 48 51 57 63 66 70 75 77 78 81 83 84 87 90 93 97 102 106 108 105 101 99 95 91 88 85 80 75 71 67 64 60 58 58 60 63 65 66 67 67 67 67 67 67 66 65 63 62 60 58 56 54 53 53 53 52 52 51 51 51 52 52 52 51 50 49 47 45 43 40 37 36 35 35 34 33 33
40 39 36 36 38 40 42 44 46 50 57 63 66 70 75 78 79 81 84 84 87 90 92 95 101 106 107 105 102 99 95 91 88 85 81 76 71 68 64 60 57 57 58 61 63 66 67 67 66 66 67 66 64 63 61 59 57 55 53 53 53 53 52 52 52 52 52 53 53 53 51 50 48 46 44 42 39 35 34 35 35 35 35 35 35
38 38 36 35 37 38 40 42 44 49 56 62 65 69 74 78 79 82 84 85 87 91 92 93 99 105 106 105 101 98 95 92 88 85 81 77 73 68 65 61 58 57 57 59 62 64 65 66 66 66 66 64 62 60 58 56 54 53 52 52 52 52 52 53 53 53 53 53 53 52 49 47 45 44 42 40 37 35 34 33 33 34 36 37 38
36 36 35 34 35 37 37 40 43 49 55 60 63 66 70 74 79 82 85 87 89 91 92 94 99 103 105 104 102 99 96 93 89 85 81 78 74 71 67 64 61 58 56 58 61 63 64 66 66 65 64 62 60 58 56 55 54 53 52 53 53 53 53 54 53 53 53 52 51 48 46 45 44 42 41 40 38 37 34 32 33 35 37 39 40
35 34 33 33 34 35 35 37 42 48 53 56 59 62 64 70 76 81 85 88 90 92 93 96 99 102 103 103 102 100 97 94 90 86 82 80 76 72 69 66 63 60 58 58 61 63 64 64 64 63 61 60 58 56 55 55 54 54 54 53 52 52 52 51 50 49 48 47 46 44 44 43 41 41 41 41 40 38 37 38 40 40 39 40 42
33 32 31 32 34 34 33 35 42 47 49 52 56 58 61 66 73 79 84 87 90 93 95 97 100 101 102 102 102 99 97 94 90 86 82 80 77 73 70 67 64 62 60 60 61 62 63 62 61 61 60 59 58 57 57 57 56 55 54 52 51 50 49 48 47 45 45 44 43 43 44 43 41 42 43 42 41 42 43 44 45 45 44 43 43
31 30 30 31 33 34 33 35 41 46 47 49 53 56 59 64 69 76 82 86 89 92 95 97 100 100 100 101 101 98 96 94 90 86 82 79 76 73 70 68 65 63 62 61 61 61 62 62 62 62 61 60 59 59 59 58 57 55 53 52 51 49 48 47 47 46 45 45 45 46 45 43 43 44 43 42 44 45 47 48 49 49 48 47 46
30 29 30 30 32 33 34 36 40 44 45 47 51 54 57 61 66 73 79 83 86 90 93 95 98 100 100 101 101 99 96 95 91 87 85 82 78 75 71 69 67 65 64 63 62 62 62 62 62 61 60 59 59 60 60 59 57 55 53 52 51 50 49 48 49 48 47 46 47 47 46 45 45 45 44 45 47 48 49 50 51 51 51 50 49
29 29 30 30 31 33 34 36 40 42 44 46 49 52 55 58 63 70 76 79 82 87 92 94 98 100 101 103 103 100 98 96 93 90 87 85 82 78 74 71 69 67 66 64 63 64 63 62 60 59 58 57 57 59 60 58 56 54 53 53 53 52 51 51 51 50 49 48 48 48 48 48 47 47 47 48 49 50 51 52 53 54 54 52 51
28 29 30 29 30 32 34 38 40 41 44 46 48 50 52 55 61 68 73 75 79 86 92 96 99 102 102 103 102 100 98 97 94 92 89 86 83 79 76 74 71 69 68 66 66 65 64 63 61 59 58 57 58 60 59 57 56 55 55 55 54 53 52 53 53 52 52 51 50 50 50 49 48 49 51 50 50 50 51 53 55 55 55 54 54
27 29 29 29 31 32 35 39 40 41 44 47 48 49 50 54 60 67 71 73 78 87 94 97 100 102 101 101 102 101 99 98 95 93 90 87 84 81 79 76 73 71 69 68 67 66 65 65 64 62 60 61 61 61 59 58 57 57 57 57 55 53 54 55 56 56 55 54 53 53 52 51 51 52 53 51 50 51 53 55 56 56 56 57 57
27 29 29 30 31 33 36 40 40 40 44 47 49 49 50 53 60 67 71 73 79 88 93 96 100 101 100 100 102 102 100 99 97 95 92 89 86 84 82 79 75 73 71 69 67 66 67 67 66 64 63 64 63 62 61 60 59 59 58 57 55 55 57 59 58 58 58 58 57 56 54 53 55 54 52 51 51 53 56 57 58 59 60 59 58
28 29 29 30 31 33 37 40 40 41 45 48 49 50 51 54 60 67 71 75 81 88 93 96 99 101 101 101 102 102 101 100 99 98 96 93 89 86 84 80 77 75 74 71 69 67 66 66 67 66 66 66 66 65 64 62 62 61 59 57 58 60 62 61 61 61 61 60 58 57 56 57 57 55 52 52 53 56 58 59 60 62 62 60 61
29 29 29 30 31 33 37 39 40 41 45 48 50 51 52 55 60 66 71 76 82 88 93 96 98 100 101 102 102 103 102 102 102 101 99 96 93 88 85 82 80 78 76 74 72 68 66 65 66 67 68 68 69 69 68 66 65 63 61 60 63 64 63 63 63 63 61 60 58 57 57 59 58 55 54 54 57 60 61 62 64 65 64 63 64
30 30 29 29 31 33 36 38 38 39 43 47 50 51 52 55 61 66 71 77 83 88 93 95 97 98 100 101 102 103 103 102 102 101 100 98 96 92 88 85 83 81 78 76 74 71 68 66 66 67 68 69 69 69 69 68 66 63 62 63 66 67 66 65 64 63 61 60 59 57 58 60 59 57 56 58 61 64 65 66 67 67 65 65 66
31 30 29 29 30 33 35 37 38 39 43 46 49 50 52 56 62 68 73 78 83 88 92 93 95 97 98 98 100 102 102 102 102 101 99 98 97 96 94 90 87 83 80 77 76 73 70 68 67 68 68 68 67 68 68 66 64 61 61 64 67 68 67 64 63 62 62 61 59 58 60 61 61 59 61 63 66 66 67 68 68 68 67 67 67
31 30 29 29 30 32 35 36 37 39 43 47 49 51 53 57 63 69 74 79 83 87 91 92 94 96 96 97 99 102 102 101 102 101 98 98 97 96 95 93 89 85 82 80 77 75 72 71 70 71 70 69 69 69 69 66 63 62 63 66 68 66 62 59 59 60 60 59 59 60 62 62 62 63 65 67 67 67 68 69 70 70 69 68 68
32 31 29 28 29 31 33 35 36 38 42 46 49 52 55 59 65 70 76 80 83 86 90 91 92 95 96 97 99 101 102 100 100 100 99 98 97 96 95 93 90 87 85 82 80 77 75 74 74 74 73 72 71 71 69 67 66 66 67 67 66 62 58 56 57 58 58 59 60 61 62 63 64 66 67 68 68 69 71 72 73 72 71 69 68
32 31 29 28 29 31 33 34 35 37 41 45 49 52 56 61 66 71 76 80 84 86 89 91 92 94 96 98 98 99 100 99 98 99 98 97 97 96 95 94 91 89 87 84 82 79 78 77 77 77 76 75 74 72 71 69 69 68 67 64 62 59 56 56 57 58 59 60 60 60 62 64 65 66 67 69 71 72 74 75 75 74 72 71 71
31 30 29 28 29 31 33 34 34 37 41 45 49 53 58 63 68 72 77 82 86 88 90 92 93 94 97 98 97 96 97 98 97 97 97 97 97 96 95 94 92 90 87 85 83 82 80 80 80 79 79 77 75 73 71 69 67 64 63 61 59 57 57 57 58 60 60 60 59 60 62 65 65 66 69 72 75 76 76 77 76 75 74 74 74
30 30 29 29 29 31 33 34 35 37 42 46 50 54 60 66 71 75 78 82 87 90 92 93 94 95 97 98 97 96 96 97 97 96 96 97 97 96 95 93 92 90 89 87 85 84 83 82 81 79 78 76 74 71 68 66 64 62 62 61 60 59 59 59 60 61 61 60 60 62 65 66 67 69 72 75 77 78 78 79 79 78 77 77 77
29 30 30 29 29 31 33 35 36 39 43 48 52 57 63 68 73 77 81 85 89 92 94 95 96 97 97 97 97 97 99 99 99 98 97 97 98 97 97 95 94 93 92 90 88 86 85 83 81 79 77 76 74 72 69 68 67 66 65 65 64 63 62 62 62 62 62 63 65 67 68 69 70 73 76 77 78 79 80 81 82 81 79 79 79
28 30 30 30 30 31 33 35 38 41 45 50 54 59 65 70 75 79 83 87 90 93 95 96 97 98 98 98 97 99 101 102 101 100 98 98 99 99 99 98 96 96 95 93 90 88 86 84 82 81 80 78 77 76 74 73 72 71 70 70 67 65 65 64 64 64 66 68 70 71 72 73 74 76 78 79 80 82 83 84 84 83 81 81 82
28 30 30 30 30 31 33 36 39 43 47 51 55 61 67 72 76 80 84 87 91 94 96 97 97 99 99 99 99 100 103 104 103 101 100 100 100 101 101 100 98 97 97 96 94 91 89 86 85 84 83 82 80 79 77 76 74 74 73 72 70 68 67 66 66 68 70 72 73 74 75 77 78 79 80 82 83 84 85 86 86 86 85 86 86
27 29 30 30 30 31 33 36 39 43 48 52 57 62 67 72 76 80 83 86 90 94 95 96 96 97 99 99 100 101 104 106 106 105 102 100 99 100 101 101 100 99 98 96 94 92 90 88 87 86 85 82 80 79 78 77 76 75 74 73 71 70 70 71 72 73 74 75 75 76 78 80 81 82 83 84 84 85 87 88 89 89 89 89 89
28 29 30 30 30 30 32 35 40 44 49 53 58 63 67 71 76 80 83 86 89 91 93 93 94 95 96 97 99 102 105 107 107 106 104 101 99 99 100 100 100 99 97 95 93 92 91 89 87 86 85 83 81 79 78 77 76 75 74 73 73 74 75 75 75 75 75 76 78 79 81 84 85 86 85 85 86 88 90 91 91 92 92 92 92
29 30 31 31 30 30 31 35 40 45 50 54 59 63 67 71 75 79 83 85 87 89 90 91 91 92 93 94 96 100 104 107 108 107 105 102 100 99 99 97 96 95 94 92 92 92 91 89 88 87 86 84 82 80 78 78 77 76 75 75 75 76 77 76 76 76 77 79 81 83 86 88 88 87 87 88 90 91 92 93 94 95 95 96 97
30 31 31 32 32 32 34 37 41 46 50 54 59 64 68 71 74 78 81 83 84 86 88 88 88 89 91 92 94 96 101 107 110 110 108 105 102 101 99 97 94 92 90 89 89 90 89 88 87 87 87 86 85 82 80 79 78 77 76 77 77 78 78 77 78 79 81 84 86 88 90 90 89 89 90 91 92 93 94 95 97 98 99 100 100
31 32 32 33 34 34 36 40 44 48 51 55 60 64 68 70 73 76 78 79 81 83 85 86 86 86 87 89 91 93 97 103 109 112 112 110 107 104 101 99 97 95 92 89 88 89 89 88 88 88 89 89 86 83 81 80 79 78 78 79 79 80 80 81 83 85 87 90 92 92 92 91 91 92 93 94 95 96 97 99 100 102 102 102 102
32 33 34 34 35 36 38 42 46 50 52 55 60 65 68 70 72 73 75 77 79 81 83 84 85 85 86 87 89 91 93 97 102 108 112 113 111 107 104 102 101 99 96 93 92 91 90 90 90 91 91 90 88 86 84 82 80 80 80 81 82 83 85 87 89 91 92 93 94 93 92 92 93 94 96 97 98 99 101 102 103 104 104 104 104
33 34 35 36 37 38 40 44 48 51 53 56 61 65 68 70 71 72 74 76 79 81 82 84 84 85 85 86 87 88 90 92 95 99 104 108 110 109 106 104 102 101 100 97 95 93 92 92 92 93 93 92 91 89 87 85 83 82 83 85 87 89 90 91 92 93 95 96 95 95 94 94 95 97 98 100 101 102 104 104 105 105 105 105 105
35 36 37 37 39 40 43 46 51 53 55 57 61 65 67 69 71 72 75 77 78 81 83 83 83 83 83 84 84 85 87 88 90 93 96 101 105 108 109 106 103 102 101 100 98 95 94 93 93 94 94 94 93 91 89 89 88 87 87 90 92 93 94 94 95 96 98 99 99 98 97 96 97 98 100 102 103 105 106 107 107 107 107 108 108
36 37 38 39 41 43 46 49 53 56 57 60 63 65 67 70 72 75 76 75 76 78 81 81 80 80 81 81 81 82 83 84 86 88 91 94 99 104 108 110 108 105 104 103 102 99 96 94 94 95 95 94 93 92 91 92 93 93 93 95 96 97 97 98 99 100 101 101 100 99 98 99 100 101 103 104 106 107 108 109 109 110 110 111 112
38 40 41 42 43 45 48 52 55 58 59 61 64 67 69 72 75 77 77 76 74 75 77 78 78 79 79 79 79 79 80 80 81 82 85 88 93 98 103 107 109 109 109 108 107 105 101 96 94 95 95 94 93 93 93 94 96 97 98 99 99 99 99 100 100 101 101 101 100 99 100 101 102 104 106 107 109 110 111 112 112 113 114 115 115
40 42 43 44 46 48 51 54 57 59 61 62 65 68 71 74 77 78 79 79 77 76 76 76 77 78 78 77 77 77 76 76 76 77 79 82 86 91 95 99 102 105 107 109 110 110 107 101 96 95 96 95 94 94 94 95 97 99 100 101 101 101 100 100 100 100 100 100 101 101 102 104 106 108 110 111 112 112 113 114 114 115 116 116 116
42 44 46 47 49 51 54 57 59 62 63 65 66 69 73 76 79 80 81 81 80 79 78 78 77 77 76 76 75 74 73 72 72 73 76 78 80 84 88 92 95 98 101 103 106 109 109 105 100 98 98 98 97 96 96 96 97 99 101 102 102 101 100 100 100 100 101 102 103 104 105 106 109 111 112 113 113 114 114 115 116 117 118 118 117
44 47 49 51 52 54 57 60 62 64 66 67 69 71 75 78 80 82 82 82 82 81 81 80 80 78 77 75 74 73 71 70 69 71 74 77 79 80 83 87 91 94 98 100 103 105 107 105 102 100 100 100 98 98 97 97 98 99 100 101 101 101 101 101 101 103 104 105 106 107 108 109 111 113 114 114 115 115 116 116 117 119 119 119 119
46 48 51 53 56 58 60 63 66 68 70 71 71 73 75 78 81 82 83 83 83 82 81 81 81 80 79 77 75 74 73 72 71 72 73 76 79 81 83 85 89 93 96 99 102 104 105 104 103 102 101 101 100 99 99 99 99 100 100 101 102 102 103 103 104 105 106 107 108 108 109 111 113 114 115 115 116 117 117 119 120 121 122 122 123
48 50 53 56 58 61 64 66 70 72 74 75 75 75 76 78 80 82 83 85 85 85 84 83 83 82 82 80 79 78 78 77 76 76 76 77 80 82 84 86 88 91 94 97 101 103 105 105 105 104 103 103 103 103 102 102 102 102 103 103 104 105 106 106 107 108 108 109 109 110 111 113 114 115 116 117 118 119 121 122 123 124 124 125 126
49 51 54 57 60 63 66 69 73 76 78 79 79 79 79 80 82 82 83 84 85 86 86 86 86 85 85 84 83 83 83 82 81 81 81 81 82 83 85 87 89 90 92 94 97 100 102 104 106 106 105 105 105 105 104 104 104 105 105 106 106 107 107 108 109 109 110 111 111 112 113 114 115 116 117 118 120 121 122 124 125 126 127 128 128
50 52 55 58 61 65 68 71 75 79 82 84 84 84 84 85 85 85 84 83 84 84 85 86 87 88 88 87 87 87 87 87 86 85 85 85 85 86 86 88 89 91 93 94 95 97 99 101 103 104 105 105 105 105 105 106 106 107 107 108 108 108 109 109 109 110 111 111 112 113 114 115 116 117 119 120 121 123 124 126 127 129 130 131 131
52 54 56 60 63 66 69 73 76 80 84 87 89 89 90 90 90 89 88 87 86 85 85 84 85 87 88 90 90 90 90 91 91 90 90 89 89 89 89 90 91 92 93 94 96 97 98 100 101 103 105 106 106 107 107 108 108 109 109 110 110 111 111 111 111 112 112 114 115 116 118 119 120 121 123 124 125 126 128 129 131 131 132 132 133
54 55 57 60 64 68 71 74 78 81 84 88 91 93 94 95 95 94 93 92 91 90 88 87 86 85 86 88 90 91 92 93 94 95 95 95 94 93 93 93 94 94 95 96 97 99 100 101 102 103 104 105 106 107 109 109 110 111 111 112 113 114 114 115 115 115 116 117 118 120 121 122 123 124 125 126 127 128 130 130 131 132 132 133 134
Wind_Direction
272 267 261 253 249 245 241 239 234 229 227 225 223 220 217 216 216 217 214 211 210 211 212 210 207 205 207 209 206 202 201 203 207 209 209 210 215 218 221 223 223 222 221 221 223 225 226 225 225 226 227 227 227 228 228 229 230 232 233 234 236 237 239 240 242 244 245 247 248 250 252 254 256 257 258 258 258 258 258 259 259 260 261 262 262
272 268 262 255 250 246 241 238 235 230 226 225 223 219 215 214 214 215 213 210 209 209 210 211 208 205 205 208 207 202 201 203 206 209 209 210 214 217 220 222 224 224 223 222 224 226 227 227 227 228 228 228 228 228 229 229 230 231 233 234 236 238 239 240 242 243 245 247 249 251 253 254 254 253 252 252 253 254 256 257 259 260 261 263 264
271 269 263 256 251 247 242 238 235 230 225 224 222 218 215 212 212 214 212 209 208 209 209 210 209 205 204 206 206 202 201 203 205 209 210 211 213 216 219 222 223 224 225 224 225 227 227 227 227 228 228 228 228 228 229 230 231 232 234 235 237 238 240 242 243 245 247 248 249 249 249 248 247 247 248 250 252 255 257 259 262 265 267 269 271
270 268 264 257 251 247 242 238 235 230 225 223 221 217 215 212 211 212 212 208 207 208 209 209 209 206 204 204 205 203 201 202 205 208 210 211 212 214 218 221 223 224 225 224 225 226 226 226 226 226 226 226 227 227 228 229 231 232 234 236 237 239 241 242 243 243 243 243 242 241 241 242 244 246 248 250 253 256 258 260 264 267 270 273 276
271 268 264 258 251 246 241 237 234 230 224 222 220 216 215 213 210 211 211 208 207 208 208 209 208 207 205 204 204 203 201 202 204 207 209 210 211 213 217 221 222 224 224 224 224 224 223 223 223 223 223 223 224 226 227 228 229 231 232 234 235 236 236 236 236 235 235 235 236 237 239 241 244 246 248 250 252 253 255 257 260 263 266 271 274
271 268 265 259 252 245 240 235 233 229 223 220 219 216 215 213 209 210 212 209 208 208 209 208 208 207 206 205 204 203 202 202 204 206 207 208 209 211 215 219 221 222 223 223 222 222 220 220 220 221 221 220 220 221 221 223 224 225 226 227 227 227 227 228 229 230 231 233 236 238 240 242 244 245 247 248 249 251 252 254 257 260 264 268 271
272 268 265 261 253 245 240 235 232 229 223 219 218 216 216 214 210 210 211 210 209 209 209 209 208 206 206 204 204 204 203 202 203 204 205 206 207 209 212 216 218 220 222 222 221 220 219 218 219 219 219 219 217 216 216 217 218 219 219 220 221 221 223 225 227 230 232 235 237 239 241 242 244 245 247 248 249 251 252 254 257 261 264 268 272
272 268 264 260 254 245 240 236 231 228 224 219 217 216 216 214 211 210 211 211 210 210 210 209 207 206 206 205 204 204 203 202 202 203 204 204 205 207 210 214 216 219 220 220 219 219 218 218 218 217 217 217 216 215 214 214 214 215 216 217 219 221 223 226 229 232 234 236 237 239 242 244 245 246 248 249 250 252 254 257 261 263 265 269 274
272 269 264 259 254 246 241 238 232 227 224 220 216 215 215 214 211 210 211 211 210 210 211 210 208 207 206 205 204 205 204 202 201 202 202 202 203 206 209 211 214 216 218 219 218 217 217 217 216 215 215 214 213 212 212 212 212 214 215 217 220 222 225 228 231 233 234 236 238 240 243 244 246 247 248 250 252 255 259 262 263 265 268 272 275
272 269 264 256 251 246 241 239 233 226 223 221 218 214 214 214 211 209 210 210 210 210 211 211 209 207 208 206 204 205 205 203 201 201 200 200 202 205 208 209 211 214 217 217 217 216 215 215 214 214 213 213 212 211 211 211 213 215 216 219 222 224 226 228 230 232 235 237 239 241 243 244 245 247 249 252 255 259 263 265 267 270 273 275 277
271 268 263 254 248 245 241 238 233 226 223 222 220 216 214 214 211 209 209 209 208 209 210 211 210 208 209 207 205 205 204 203 202 201 199 199 200 203 206 208 210 212 215 216 216 214 214 213 213 212 212 212 212 211 212 212 214 217 219 221 224 226 227 228 231 233 236 239 241 242 244 246 247 249 252 256 260 261 263 268 273 275 277 278 280
269 265 261 253 247 243 240 237 233 226 223 222 222 219 217 214 211 209 208 208 207 208 209 210 210 209 209 208 206 205 204 203 202 201 199 198 199 201 203 205 209 211 213 215 215 214 212 212 211 211 211 211 211 211 212 213 215 218 221 223 225 226 227 229 232 235 238 240 242 244 246 248 251 255 259 262 265 267 270 274 274 274 276 278 280
266 262 258 252 246 242 238 235 232 228 224 222 222 221 219 215 212 209 208 207 206 207 208 209 210 210 210 208 206 205 203 202 202 201 199 198 198 201 202 203 206 210 212 214 215 215 213 212 211 211 211 212 212 212 213 214 216 218 220 222 223 225 228 231 235 238 241 244 246 248 250 252 255 259 262 266 270 274 277 278 276 275 276 278 279
264 259 254 249 245 241 235 230 229 228 225 222 221 221 220 216 213 210 208 207 206 206 207 209 209 209 209 208 207 206 203 201 201 201 200 199 199 200 202 202 204 208 211 213 215 216 216 215 214 213 213 214 214 215 216 216 217 218 220 222 225 228 232 235 239 243 245 247 248 249 250 253 255 258 262 268 273 276 277 278 278 279 279 279 280
264 257 251 246 243 239 231 226 226 227 225 221 220 220 219 217 214 211 209 208 207 207 207 208 209 208 208 208 207 206 204 201 200 201 200 200 201 201 201 202 204 207 211 214 215 217 218 218 217 215 215 215 215 217 218 218 219 220 223 227 229 232 236 239 242 245 247 248 249 251 252 255 257 260 265 269 271 274 276 278 279 280 281 281 280
265 257 251 245 240 235 228 223 223 224 222 220 219 219 218 217 214 212 210 209 208 207 208 208 208 207 206 206 206 205 204 201 200 200 200 200 202 202 203 204 205 207 210 213 215 217 219 220 219 219 218 217 216 217 219 220 222 225 228 231 233 236 239 242 244 246 249 251 252 254 256 258 261 264 266 267 269 273 276 278 280 280 280 279 279
265 257 251 244 238 232 226 221 221 221 218 217 217 217 217 216 214 212 211 210 208 208 208 208 208 206 205 205 205 205 204 201 199 200 200 200 201 202 204 205 206 208 210 212 214 217 219 220 221 220 219 217 216 217 219 222 225 229 232 234 237 239 242 244 246 248 250 251 252 254 256 259 261 263 264 265 269 273 276 278 278 277 277 279 280
264 257 251 244 237 230 225 220 218 217 215 214 215 215 215 214 212 211 211 210 207 207 207 208 207 207 206 204 204 204 204 203 200 200 201 201 200 202 204 205 207 209 211 212 213 216 218 220 221 220 219 218 218 218 221 224 228 232 235 237 239 242 244 246 247 248 249 250 252 254 256 258 261 263 265 267 271 274 278 278 277 276 277 278 278
262 256 251 244 236 229 225 221 217 213 212 211 212 212 212 211 209 208 209 208 206 206 207 208 208 208 207 204 203 203 204 204 201 200 201 202 201 202 204 206 207 209 212 213 213 215 216 219 220 219 218 219 220 221 223 227 230 233 236 238 240 243 245 246 247 248 249 250 252 253 254 257 260 263 267 271 275 277 278 278 277 276 275 275 275
259 253 249 242 235 229 225 222 218 211 209 210 210 209 209 208 206 206 206 206 205 207 208 209 209 209 209 206 203 202 204 205 204 202 202 203 203 203 204 206 207 209 212 213 214 215 216 217 219 220 220 221 223 224 226 229 232 235 237 240 242 244 245 246 247 248 249 250 252 253 255 258 260 263 269 274 276 278 277 276 275 273 272 273 274
254 249 245 240 234 230 226 224 218 211 208 208 208 207 207 206 204 203 204 204 205 207 209 210 210 210 209 207 204 203 204 206 206 204 203 203 204 204 204 206 208 210 212 213 214 215 217 218 218 219 221 223 225 227 228 230 233 235 237 240 242 244 245 246 248 249 250 252 254 255 257 258 261 265 270 274 276 276 275 274 272 270 270 271 272
251 247 243 238 233 230 228 226 220 212 208 208 207 206 206 205 202 201 202 204 206 208 210 211 211 210 210 208 206 204 204 205 207 207 204 203 204 205 205 206 208 211 212 213 214 214 216 218 219 220 221 223 225 227 229 231 233 235 237 239 241 244 245 246 248 250 252 254 256 257 257 259 263 267 271 274 274 273 272 271 270 270 270 270 271
251 246 241 236 232 229 227 226 222 214 209 209 208 206 205 203 200 199 201 204 206 209 210 211 211 211 210 209 208 206 205 206 207 208 207 204 203 204 206 208 210 211 212 213 214 214 215 217 220 221 223 224 226 228 229 231 233 235 237 240 242 243 245 246 248 250 253 255 256 257 258 260 264 268 270 271 271 270 270 270 270 270 271 271 272
252 246 241 235 231 228 225 224 219 211 207 207 207 205 204 203 200 198 201 204 207 209 211 212 211 211 211 210 209 208 207 207 208 208 208 207 204 203 205 207 210 211 212 213 214 215 215 216 219 221 223 225 227 229 230 231 233 235 237 239 241 242 244 246 249 251 252 254 255 256 258 261 264 266 267 268 268 269 270 271 272 272 272 272 273
252 246 241 236 231 227 225 223 218 211 205 205 205 204 203 202 200 198 201 204 207 209 211 212 211 211 211 210 209 209 208 208 209 208 208 208 206 205 205 206 208 210 212 213 214 215 217 218 219 221 222 224 226 228 230 231 233 235 236 239 241 242 244 246 249 250 251 253 254 255 257 260 262 264 264 266 268 270 272 273 273 272 272 271 271
252 245 240 235 231 227 225 224 219 212 205 203 203 202 202 201 200 199 201 204 207 209 211 211 211 211 211 211 210 210 210 209 209 209 208 208 208 208 207 206 208 210 212 214 215 216 218 220 221 222 223 224 226 229 231 232 233 235 236 238 240 242 243 245 247 249 250 251 252 254 257 259 260 261 263 266 268 270 272 272 272 271 270 269 268
251 245 239 234 230 226 222 221 218 211 205 202 201 201 201 201 200 199 200 204 207 209 211 211 211 211 211 212 211 210 210 210 210 210 210 210 210 210 209 208 208 209 211 213 215 217 218 221 222 223 224 224 226 228 229 230 232 234 236 238 240 242 243 244 246 248 249 250 252 255 257 258 260 262 264 266 268 269 270 271 271 270 269 267 267
250 244 238 232 228 225 220 216 213 208 203 200 200 201 201 200 200 200 200 203 207 209 210 211 211 211 212 213 212 211 211 211 211 211 212 212 212 212 212 210 209 209 210 212 215 218 220 221 222 223 224 225 226 227 229 231 233 235 238 239 241 243 245 245 247 248 249 251 254 256 257 259 261 262 263 264 265 266 268 269 269 268 267 266 267
247 242 237 230 226 223 219 214 209 205 201 199 199 200 200 200 199 199 200 203 206 208 210 210 210 211 212 213 213 212 212 212 211 211 212 212 213 214 214 213 212 211 211 212 214 217 220 221 222 223 224 225 226 227 229 232 235 237 239 241 243 244 246 247 248 249 249 252 254 255 256 257 259 260 260 261 263 265 266 267 267 265 265 266 269
244 240 235 229 225 222 218 212 207 203 200 199 199 200 200 200 199 199 200 203 205 208 210 210 210 211 212 213 213 212 213 213 213 212 212 213 214 215 215 215 214 213 212 213 214 216 219 221 222 223 224 226 227 228 230 233 236 238 240 242 244 245 246 247 247 247 248 250 252 252 254 256 257 258 259 261 263 264 265 265 264 264 265 267 269
241 238 233 228 223 219 215 210 205 202 200 199 199 199 199 199 199 200 201 203 205 208 209 210 211 211 212 213 213 213 213 215 215 214 213 214 215 216 216 216 216 215 214 214 215 216 219 221 223 224 225 226 227 228 231 234 237 239 240 242 243 244 245 246 246 246 247 248 250 252 254 255 256 257 259 261 262 263 264 264 264 265 266 267 268
236 235 232 226 222 218 214 209 205 202 200 199 199 199 199 199 200 200 201 203 205 207 209 210 211 212 213 214 214 214 214 215 216 217 216 215 216 217 217 217 217 216 216 215 216 216 218 221 222 224 225 226 227 228 231 235 237 239 240 241 242 244 245 245 245 245 246 247 249 252 254 255 255 257 260 261 262 263 263 264 264 264 265 266 268
232 231 229 225 221 218 213 208 203 201 200 199 199 199 199 199 200 201 202 203 205 207 209 210 211 212 213 214 215 215 215 216 217 217 218 218 217 217 218 218 218 218 218 217 217 218 220 222 223 224 226 227 227 228 231 234 236 237 239 240 242 243 244 244 244 245 247 248 251 253 255 255 256 258 260 261 262 262 262 262 262 264 265 267 269
227 226 224 221 218 217 213 207 202 200 199 199 199 199 199 199 199 200 202 204 206 208 209 211 212 212 213 214 215 216 217 218 218 218 219 220 221 220 220 220 220 220 220 220 219 220 222 223 224 225 226 228 229 230 231 233 234 236 237 239 241 242 243 245 246 247 249 250 252 254 255 256 258 259 260 261 262 262 261 261 262 264 266 267 269
222 221 220 217 213 212 211 206 201 198 198 198 197 197 198 198 199 200 202 204 206 208 210 211 212 213 214 215 216 217 218 219 219 220 220 221 223 224 223 223 222 222 222 222 223 223 224 225 226 227 227 229 230 231 232 233 234 235 237 238 240 242 244 246 247 248 250 252 254 254 255 256 258 259 260 261 262 261 261 262 263 265 266 268 269
219 217 216 214 210 206 205 203 199 197 197 196 195 196 197 198 199 200 203 205 207 208 211 212 213 214 215 216 217 218 219 220 220 221 221 221 223 225 227 227 226 225 224 225 226 226 226 227 228 228 229 230 231 232 233 234 234 235 236 238 240 242 244 245 247 249 251 253 253 253 254 256 257 258 259 260 261 261 261 263 264 265 266 268 269
216 213 212 211 208 204 202 199 197 195 195 194 194 195 196 197 198 201 203 206 207 209 212 213 214 216 217 218 218 219 220 220 221 222 222 222 223 225 227 229 229 229 228 227 228 228 228 229 229 230 231 232 232 233 234 235 236 237 238 239 241 242 244 246 248 250 251 251 252 253 254 256 256 257 258 259 260 261 262 263 264 266 267 268 270
215 211 209 208 205 202 200 198 195 193 192 192 193 194 196 197 199 201 203 206 208 210 212 214 215 217 219 220 220 221 221 222 223 223 223 224 224 225 227 229 231 232 231 230 230 230 231 231 232 233 234 234 233 233 234 235 236 238 239 240 241 243 244 246 248 250 251 252 254 255 256 256 256 256 257 258 260 261 262 263 265 266 267 269 270
215 211 208 207 204 200 198 196 194 192 190 190 192 194 195 197 198 201 204 206 208 210 212 214 216 218 220 221 222 223 224 225 225 225 225 225 226 226 227 229 232 233 234 234 233 233 233 233 234 235 236 236 235 235 235 236 237 237 238 240 242 243 245 247 248 250 252 253 254 256 257 257 256 256 257 259 260 262 263 264 265 266 267 268 269
216 212 209 206 203 200 197 195 193 191 189 190 192 194 196 197 199 201 204 207 210 212 214 216 217 219 221 222 223 225 226 227 227 227 227 227 227 227 227 228 231 233 234 235 235 236 236 236 236 237 237 238 238 238 238 239 239 239 239 241 243 244 245 247 249 250 252 253 255 256 256 256 257 258 259 261 262 263 264 264 265 266 267 268 269
217 212 209 206 203 200 197 195 193 191 190 191 193 194 195 197 200 202 205 207 211 215 217 218 219 221 223 224 225 226 227 228 229 229 229 228 227 227 227 227 229 231 233 234 235 235 236 237 238 239 239 239 239 239 239 240 240 240 241 243 244 245 246 248 249 251 253 254 256 256 256 256 258 259 261 261 262 262 263 264 264 265 266 268 270
218 213 209 207 204 201 198 196 195 193 192 192 194 195 196 198 201 204 206 208 211 216 218 219 220 222 224 226 227 228 228 228 229 229 230 229 228 228 227 228 229 230 232 234 235 236 236 237 238 239 238 238 239 239 240 240 240 241 242 243 245 246 247 248 250 252 254 255 256 256 256 257 258 259 260 260 261 262 262 263 264 265 267 269 272
220 214 210 207 205 202 199 198 197 196 194 194 195 196 197 199 202 205 207 209 212 215 217 218 220 223 224 226 227 228 228 229 229 228 228 228 227 227 227 228 229 230 231 233 235 236 236 237 238 237 237 237 238 239 239 240 241 242 243 244 245 247 248 250 251 253 254 254 254 255 255 257 258 258 259 259 260 261 262 264 265 267 269 271 272
221 216 211 207 205 204 201 200 199 199 198 197 197 198 199 201 204 206 208 210 213 215 216 217 219 221 223 225 226 226 227 227 227 226 225 225 225 225 226 226 227 228 229 231 233 234 235 236 237 237 237 237 238 239 240 241 242 243 244 246 247 248 249 250 251 252 252 253 253 254 255 256 257 258 258 259 261 262 264 265 267 269 271 271 272
222 219 214 209 206 205 203 202 201 202 202 202 201 201 201 203 205 208 209 211 213 216 217 218 218 220 221 222 223 224 224 224 224 224 224 224 224 224 225 225 226 227 228 229 231 232 233 234 235 236 237 238 238 240 241 243 244 245 246 247 248 249 249 250 250 251 251 252 254 255 256 256 257 258 260 261 262 264 265 267 269 270 270 271 271
224 221 217 212 207 205 205 204 203 204 205 206 206 205 205 206 208 210 212 213 214 216 217 218 219 219 220 220 221 222 222 222 222 222 223 223 224 225 225 226 227 227 228 229 230 231 232 233 235 236 237 238 239 240 242 243 244 245 245 246 247 248 248 249 249 250 252 253 254 255 256 257 258 259 261 262 263 265 266 267 268 269 269 270 271
226 223 220 216 211 207 206 205 205 205 206 207 208 209 209 210 211 213 214 215 216 217 218 218 219 219 220 220 220 220 220 221 221 222 222 222 223 224 225 226 228 229 229 230 231 232 233 234 235 236 238 239 241 242 243 244 244 244 245 245 246 247 248 249 250 251 253 254 255 256 257 258 259 260 261 262 263 264 265 266 267 268 269 270 271
226 225 223 220 216 212 208 207 206 206 207 208 209 210 212 213 214 216 217 219 219 219 219 219 219 220 221 221 220 220 221 221 221 222 222 223 223 224 225 226 227 229 230 231 232 233 233 234 235 237 238 239 241 242 242 243 243 243 244 244 245 246 248 249 250 252 253 254 255 256 257 258 258 259 260 261 262 262 263 265 266 267 268 269 270
225 226 224 222 219 216 213 210 208 208 208 209 209 211 212 214 216 218 219 221 223 223 223 223 222 221 222 222 223 223 223 223 223 224 225 225 225 226 227 227 228 229 230 231 232 233 234 235 236 237 238 239 240 241 241 242 242 242 243 243 244 245 246 248 249 251 252 253 254 255 255 256 257 258 259 260 261 262 263 264 265 267 268 269 270
224 225 225 223 221 218 216 213 211 210 209 210 211 211 213 215 217 218 220 222 224 226 226 226 225 224 224 224 225 225 226 226 226 226 227 227 228 228 229 229 230 231 232 232 233 234 235 236 237 238 239 240 241 241 242 242 242 242 242 243 244 245 246 247 248 249 250 252 253 254 255 256 257 258 260 261 262 263 264 265 267 268 269 270 272
225 224 224 224 222 220 218 216 214 213 211 211 212 213 214 215 217 219 220 222 224 226 227 228 229 228 228 227 227 228 228 229 229 229 229 229 229 230 230 231 231 232 233 234 234 235 236 237 238 239 240 241 241 242 243 243 243 243 244 244 245 246 247 248 249 250 251 252 254 255 256 257 258 260 261 262 263 265 266 267 268 269 270 271 272
Height
10150 10150 10152 10154 10155 10157 10161 10164 10168 10172 10177 10181 10188 10193 10200 10209 10218 10224 10232 10239 10246 10255 10264 10270 10277 10285 10295 10303 10310 10319 10329 10339 10347 10354 10360 10367 10373 10377 10383 10388 10394 10400 10403 10406 10409 10414 10419 10426 10432 10436 10442 10449 10454 10459 10464 10469 10473 10477 10481 10485 10489 10493 10497 10500 10502 10505 10506 10508 10510 10512 10514 10516 10518 10519 10520 10521 10521 10522 10522 10522 10522 10522 10523 10522 10522
10141 10141 10142 10145 10147 10148 10151 10155 10159 10164 10169 10173 10178 10184 10191 10199 10207 10214 10222 10229 10236 10245 10253 10261 10267 10275 10286 10295 10303 10312 10321 10331 10339 10346 10354 10361 10366 10372 10377 10382 10388 10392 10397 10401 10405 10410 10416 10423 10428 10433 10439 10444 10449 10454 10459 10463 10467 10471 10475 10479 10483 10487 10490 10493 10496 10498 10500 10502 10504 10506 10508 10510 10511 10512 10513 10514 10514 10515 10515 10515 10515 10515 10515 10514 10514
10133 10132 10133 10136 10138 10139 10142 10146 10150 10156 10161 10164 10169 10176 10183 10189 10196 10204 10212 10218 10226 10235 10242 10250 10258 10267 10276 10285 10294 10303 10312 10321 10330 10339 10347 10354 10360 10366 10372 10377 10382 10387 10393 10398 10402 10407 10413 10419 10424 10429 10434 10439 10444 10449 10453 10457 10462 10466 10470 10474 10478 10481 10484 10487 10489 10491 10493 10496 10498 10500 10502 10503 10505 10506 10507 10508 10508 10508 10508 10508 10507 10507 10506 10506 10506
10125 10125 10125 10127 10129 10130 10133 10137 10141 10146 10152 10156 10160 10167 10174 10179 10186 10195 10202 10209 10217 10225 10233 10241 10249 10258 10266 10274 10284 10294 10303 10312 10321 10330 10338 10346 10354 10361 10367 10372 10377 10383 10389 10394 10397 10402 10409 10414 10419 10423 10427 10433 10438 10442 10447 10453 10457 10461 10465 10469 10472 10476 10478 10480 10482 10485 10487 10489 10492 10494 10496 10497 10499 10500 10501 10501 10502 10501 10501 10501 10500 10500 10500 10499 10499
10117 10117 10117 10119 10120 10121 10124 10128 10131 10137 10143 10147 10151 10158 10164 10170 10177 10185 10193 10200 10207 10214 10222 10231 10241 10249 10258 10266 10276 10285 10295 10304 10313 10321 10330 10339 10348 10355 10361 10367 10373 10379 10384 10388 10392 10398 10403 10408 10412 10416 10421 10427 10432 10437 10443 10447 10450 10454 10458 10462 10466 10469 10471 10473 10476 10479 10481 10484 10486 10488 10490 10491 10493 10494 10495 10495 10495 10495 10495 10495 10494 10495 10495 10494 10494
10109 10109 10109 10111 10112 10113 10115 10119 10123 10127 10133 10137 10142 10148 10154 10160 10167 10175 10184 10191 10198 10205 10213 10222 10232 10242 10252 10261 10270 10278 10286 10295 10304 10312 10322 10331 10339 10347 10354 10360 10367 10373 10378 10382 10387 10393 10398 10402 10406 10411 10417 10422 10426 10431 10435 10439 10443 10448 10452 10455 10459 10462 10465 10467 10470 10473 10476 10478 10480 10482 10484 10485 10487 10488 10489 10489 10489 10489 10489 10489 10489 10489 10489 10489 10489
10101 10102 10102 10103 10105 10106 10107 10110 10114 10119 10124 10128 10132 10139 10145 10151 10158 10165 10175 10184 10190 10197 10205 10213 10225 10236 10244 10253 10262 10271 10278 10287 10295 10304 10312 10322 10331 10340 10348 10355 10362 10368 10373 10378 10383 10388 10393 10397 10401 10407 10412 10416 10420 10424 10428 10432 10436 10441 10445 10448 10452 10456 10459 10462 10464 10468 10471 10473 10475 10476 10478 10479 10481 10483 10483 10483 10484 10483 10482 10483 10484 10484 10484 10483 10483
10094 10094 10095 10096 10097 10099 10100 10102 10106 10112 10116 10118 10123 10129 10136 10143 10149 10157 10167 10177 10183 10190 10198 10206 10217 10227 10235 10245 10255 10263 10270 10279 10288 10296 10305 10314 10325 10334 10342 10350 10357 10363 10369 10374 10380 10384 10389 10393 10398 10403 10407 10410 10414 10417 10421 10426 10430 10434 10438 10443 10447 10451 10454 10456 10459 10463 10466 10468 10469 10471 10472 10474 10476 10476 10477 10477 10476 10476 10477 10478 10479 10478 10478 10478 10478
10087 10087 10087 10088 10090 10092 10093 10095 10099 10104 10108 10110 10113 10119 10126 10134 10141 10149 10159 10169 10176 10182 10190 10199 10209 10217 10225 10236 10246 10254 10263 10273 10282 10291 10301 10310 10320 10328 10336 10344 10352 10358 10364 10370 10375 10380 10384 10389 10393 10397 10401 10404 10408 10411 10416 10420 10424 10429 10433 10438 10442 10445 10448 10451 10454 10457 10460 10462 10464 10465 10467 10468 10469 10470 10470 10469 10469 10470 10473 10473 10472 10472 10472 10472 10472
10080 10081 10081 10081 10082 10085 10087 10089 10092 10097 10100 10102 10104 10108 10115 10123 10132 10141 10151 10160 10168 10176 10183 10191 10201 10210 10218 10228 10237 10246 10257 10268 10277 10286 10295 10305 10314 10321 10330 10338 10345 10352 10358 10365 10371 10375 10380 10385 10389 10392 10396 10399 10403 10407 10411 10415 10420 10424 10428 10432 10436 10439 10443 10446 10449 10452 10454 10456 10457 10459 10460 10462 10462 10463 10463 10462 10464 10466 10467 10466 10466 10467 10467 10467 10466
10073 10074 10074 10074 10075 10077 10081 10084 10087 10091 10093 10095 10097 10100 10106 10114 10123 10132 10142 10151 10160 10168 10176 10185 10194 10203 10212 10221 10232 10242 10253 10263 10272 10281 10290 10298 10306 10314 10323 10332 10339 10346 10353 10360 10366 10371 10375 10380 10383 10387 10391 10395 10399 10403 10407 10411 10415 10419 10423 10427 10430 10434 10437 10440 10443 10446 10448 10449 10451 10452 10454 10455 10455 10455 10455 10456 10459 10460 10460 10460 10461 10461 10460 10460 10460
10067 10067 10068 10069 10069 10070 10074 10078 10081 10084 10086 10088 10091 10095 10100 10107 10115 10123 10133 10143 10152 10160 10169 10179 10188 10196 10205 10216 10227 10237 10247 10257 10266 10275 10285 10293 10300 10307 10314 10323 10332 10340 10348 10355 10361 10365 10370 10374 10377 10382 10386 10390 10394 10398 10402 10406 10410 10414 10418 10421 10425 10429 10432 10435 10437 10440 10441 10443 10444 10446 10447 10447 10447 10448 10449 10450 10451 10452 10454 10456 10455 10454 10454 10454 10454
10061 10061 10061 10063 10064 10065 10068 10072 10076 10078 10080 10082 10086 10090 10096 10103 10109 10116 10125 10134 10144 10153 10163 10172 10181 10190 10200 10210 10221 10230 10240 10249 10259 10268 10278 10286 10293 10300 10307 10316 10326 10334 10342 10349 10354 10359 10364 10367 10372 10377 10381 10385 10388 10393 10397 10401 10405 10409 10412 10416 10419 10423 10426 10429 10432 10434 10435 10436 10438 10439 10439 10439 10441 10442 10441 10442 10444 10446 10448 10448 10448 10448 10448 10448 10448
10055 10055 10055 10057 10058 10059 10062 10065 10069 10072 10076 10078 10081 10086 10092 10098 10103 10110 10118 10127 10137 10147 10156 10165 10173 10183 10195 10206 10216 10225 10234 10243 10252 10263 10273 10281 10287 10294 10302 10311 10319 10327 10335 10342 10348 10354 10358 10363 10368 10372 10376 10380 10384 10388 10391 10395 10399 10404 10408 10411 10415 10418 10421 10423 10425 10427 10429 10430 10431 10431 10430 10432 10434 10434 10434 10437 10439 10440 10441 10441 10441 10441 10442 10442 10443
10050 10050 10049 10050 10052 10054 10056 10058 10061 10066 10070 10074 10078 10082 10087 10093 10099 10105 10112 10121 10131 10140 10148 10157 10166 10177 10190 10201 10210 10220 10229 10238 10247 10257 10267 10276 10282 10289 10296 10304 10313 10321 10328 10335 10342 10348 10353 10358 10362 10365 10369 10374 10379 10382 10386 10390 10394 10399 10403 10407 10410 10412 10415 10417 10418 10419 10421 10423 10423 10422 10422 10425 10426 10427 10429 10431 10432 10433 10433 10434 10434 10434 10435 10436 10436
10045 10045 10044 10044 10046 10048 10050 10052 10054 10059 10064 10069 10073 10078 10083 10088 10094 10101 10108 10117 10126 10134 10142 10151 10161 10172 10184 10195 10204 10214 10223 10231 10241 10250 10258 10266 10274 10282 10290 10298 10306 10314 10321 10329 10336 10342 10346 10350 10355 10359 10364 10368 10372 10376 10380 10384 10388 10393 10397 10400 10403 10406 10408 10410 10410 10411 10413 10415 10415 10415 10416 10418 10420 10421 10423 10424 10425 10426 10427 10427 10427 10427 10428 10428 10429
10040 10039 10039 10039 10040 10043 10045 10046 10049 10054 10059 10064 10068 10072 10078 10084 10091 10098 10106 10113 10122 10130 10139 10148 10157 10167 10177 10187 10197 10207 10215 10224 10233 10242 10250 10257 10265 10274 10283 10291 10299 10307 10314 10321 10328 10333 10339 10345 10350 10354 10358 10363 10367 10370 10374 10378 10383 10388 10391 10394 10397 10400 10402 10402 10403 10405 10406 10407 10407 10408 10410 10412 10414 10415 10416 10418 10419 10420 10421 10421 10420 10420 10420 10421 10422
10034 10033 10033 10034 10035 10037 10039 10040 10042 10048 10054 10058 10062 10068 10074 10080 10087 10095 10102 10110 10119 10127 10135 10144 10152 10160 10170 10181 10192 10202 10211 10219 10227 10235 10242 10250 10259 10268 10276 10284 10292 10300 10307 10313 10319 10325 10332 10339 10344 10348 10354 10358 10361 10364 10368 10373 10378 10382 10385 10387 10390 10394 10395 10395 10396 10397 10398 10399 10401 10402 10403 10405 10408 10409 10409 10412 10413 10414 10414 10414 10412 10412 10413 10413 10413
10028 10028 10028 10029 10030 10032 10034 10035 10037 10043 10049 10053 10057 10063 10070 10076 10083 10091 10099 10107 10116 10124 10131 10139 10148 10155 10165 10176 10187 10196 10204 10212 10220 10228 10236 10244 10253 10262 10269 10277 10285 10293 10300 10307 10313 10319 10325 10331 10336 10342 10348 10350 10353 10358 10363 10368 10372 10376 10378 10380 10384 10388 10388 10387 10388 10389 10390 10392 10394 10394 10396 10399 10401 10402 10403 10405 10406 10406 10406 10405 10405 10405 10405 10404 10404
10023 10023 10023 10024 10026 10028 10030 10031 10034 10039 10045 10049 10052 10058 10066 10072 10079 10087 10095 10104 10113 10121 10128 10135 10143 10152 10161 10170 10179 10188 10198 10206 10214 10221 10229 10238 10246 10254 10262 10271 10280 10287 10294 10300 10307 10313 10318 10323 10329 10335 10339 10342 10347 10352 10356 10361 10365 10368 10370 10375 10379 10380 10378 10378 10380 10381 10382 10384 10386 10388 10390 10393 10395 10396 10397 10398 10399 10398 10397 10397 10398 10396 10395 10396 10397
10018 10018 10019 10020 10022 10024 10026 10028 10031 10035 10040 10044 10048 10054 10061 10067 10074 10083 10091 10100 10110 10118 10125 10132 10138 10146 10155 10164 10173 10182 10191 10200 10208 10215 10222 10231 10240 10247 10256 10265 10274 10280 10286 10293 10300 10307 10313 10318 10322 10326 10330 10334 10338 10343 10348 10353 10356 10359 10364 10370 10370 10368 10367 10370 10373 10374 10375 10378 10380 10383 10384 10386 10388 10390 10391 10391 10391 10389 10388 10389 10389 10386 10386 10389 10388
10014 10014 10015 10016 10018 10020 10022 10025 10028 10031 10036 10040 10044 10050 10056 10063 10070 10079 10087 10097 10106 10114 10121 10127 10134 10142 10150 10160 10169 10177 10184 10192 10200 10208 10215 10223 10232 10242 10252 10261 10266 10271 10278 10285 10293 10300 10306 10311 10315 10318 10321 10324 10328 10333 10339 10343 10347 10351 10357 10360 10358 10357 10360 10364 10365 10367 10370 10372 10375 10377 10378 10379 10381 10382 10382 10382 10381 10379 10379 10380 10378 10377 10378 10380 10378
10011 10011 10012 10013 10015 10017 10019 10022 10026 10030 10034 10038 10042 10046 10052 10059 10066 10074 10083 10093 10102 10110 10116 10123 10131 10138 10147 10156 10165 10173 10179 10187 10195 10203 10211 10218 10226 10236 10246 10253 10258 10264 10272 10279 10286 10292 10297 10301 10305 10309 10312 10315 10318 10323 10328 10333 10337 10342 10347 10348 10347 10348 10352 10355 10358 10361 10364 10365 10367 10370 10371 10372 10373 10373 10373 10372 10370 10369 10369 10370 10369 10369 10370 10371 10369
10009 10009 10009 10010 10011 10013 10016 10019 10023 10027 10030 10035 10039 10044 10050 10055 10061 10069 10078 10088 10097 10105 10111 10119 10127 10135 10144 10153 10162 10169 10176 10183 10191 10198 10206 10213 10220 10228 10235 10242 10249 10257 10265 10271 10277 10282 10287 10292 10295 10298 10301 10306 10310 10314 10317 10322 10327 10333 10336 10336 10335 10337 10342 10348 10351 10354 10355 10357 10360 10362 10363 10364 10364 10363 10362 10360 10358 10359 10361 10361 10360 10360 10361 10362 10361
10006 10006 10007 10007 10009 10010 10012 10015 10020 10024 10027 10030 10035 10040 10046 10051 10057 10065 10074 10083 10092 10100 10107 10115 10123 10131 10139 10148 10157 10164 10171 10178 10186 10193 10201 10208 10215 10221 10227 10234 10242 10250 10256 10262 10268 10273 10278 10282 10285 10287 10291 10295 10299 10301 10306 10312 10318 10322 10323 10322 10323 10328 10336 10341 10343 10344 10347 10350 10352 10353 10354 10354 10353 10352 10349 10348 10349 10352 10353 10352 10351 10351 10351 10352 10351
10003 10003 10004 10005 10006 10007 10009 10013 10017 10022 10024 10027 10031 10035 10041 10047 10053 10060 10069 10078 10087 10095 10103 10111 10119 10127 10135 10143 10150 10157 10165 10173 10181 10188 10196 10202 10209 10216 10222 10228 10235 10242 10248 10254 10259 10264 10268 10271 10274 10278 10282 10285 10288 10292 10298 10304 10308 10309 10310 10312 10316 10322 10329 10333 10335 10336 10339 10341 10342 10344 10345 10343 10341 10340 10339 10340 10343 10344 10343 10341 10340 10340 10342 10342 10342
9999 10000 10000 10001 10003 10004 10006 10009 10014 10019 10022 10025 10029 10033 10038 10043 10049 10056 10064 10073 10082 10090 10099 10107 10115 10123 10130 10137 10144 10151 10160 10169 10177 10184 10191 10198 10204 10210 10216 10223 10228 10234 10240 10247 10252 10256 10259 10262 10265 10268 10271 10274 10279 10283 10288 10292 10295 10297 10301 10307 10312 10317 10322 10325 10327 10328 10329 10331 10333 10335 10333 10331 10331 10332 10333 10333 10334 10333 10332 10331 10330 10330 10331 10331 10331
9996 9997 9997 9998 10000 10001 10002 10005 10009 10014 10018 10022 10026 10031 10035 10040 10046 10053 10060 10068 10076 10084 10093 10101 10109 10117 10124 10130 10138 10147 10155 10164 10172 10180 10188 10194 10199 10204 10210 10216 10222 10227 10234 10240 10244 10247 10250 10251 10254 10257 10260 10264 10270 10275 10280 10284 10289 10294 10298 10302 10307 10310 10313 10316 10317 10318 10320 10323 10324 10324 10322 10322 10323 10325 10324 10323 10322 10322 10322 10320 10320 10321 10321 10320 10321
9992 9994 9995 9995 9997 9998 10000 10003 10006 10011 10014 10018 10022 10027 10032 10036 10042 10048 10055 10063 10070 10078 10086 10094 10102 10109 10116 10123 10133 10143 10152 10159 10166 10172 10178 10185 10191 10197 10203 10209 10215 10221 10225 10229 10232 10235 10237 10240 10244 10249 10253 10258 10263 10269 10275 10279 10284 10288 10292 10295 10299 10302 10304 10307 10309 10310 10311 10313 10313 10313 10313 10313 10313 10313 10312 10311 10311 10311 10311 10309 10309 10310 10310 10310 10311
9989 9990 9991 9993 9994 9996 9998 10001 10004 10008 10011 10014 10019 10023 10028 10033 10038 10044 10050 10057 10064 10072 10080 10088 10095 10102 10109 10118 10127 10137 10145 10151 10156 10161 10168 10175 10181 10187 10192 10198 10204 10209 10213 10217 10221 10224 10227 10231 10236 10241 10246 10251 10256 10262 10267 10271 10275 10279 10283 10286 10289 10292 10295 10298 10299 10300 10300 10301 10302 10302 10302 10302 10301 10300 10300 10300 10300 10300 10299 10298 10297 10298 10300 10301 10302
9985 9987 9988 9989 9991 9992 9995 9998 10001 10005 10008 10011 10015 10020 10024 10029 10034 10039 10045 10051 10058 10066 10074 10082 10090 10097 10104 10112 10120 10128 10135 10141 10146 10152 10159 10166 10171 10176 10182 10187 10193 10198 10203 10207 10210 10214 10218 10223 10228 10232 10237 10241 10246 10252 10257 10260 10264 10268 10272 10275 10278 10282 10285 10287 10288 10288 10288 10289 10290 10290 10290 10290 10290 10289 10289 10288 10288 10287 10287 10286 10286 10288 10290 10291 10291
9981 9983 9985 9986 9987 9988 9991 9994 9997 10001 10004 10007 10011 10016 10020 10025 10030 10035 10040 10046 10053 10061 10068 10076 10084 10092 10099 10106 10113 10121 10128 10134 10139 10145 10151 10157 10162 10166 10171 10175 10181 10186 10190 10194 10198 10203 10208 10213 10217 10221 10225 10231 10237 10242 10246 10250 10254 10258 10261 10265 10269 10272 10274 10276 10276 10275 10275 10277 10278 10279 10278 10279 10279 10279 10277 10276 10276 10276 10276 10275 10275 10277 10279 10280 10281
9977 9979 9981 9982 9983 9985 9987 9990 9993 9997 10001 10004 10007 10011 10015 10020 10026 10031 10038 10043 10049 10055 10063 10070 10078 10086 10093 10100 10107 10114 10121 10126 10131 10136 10142 10148 10153 10157 10161 10166 10171 10175 10180 10186 10193 10199 10202 10206 10210 10214 10219 10224 10229 10233 10237 10241 10244 10248 10252 10256 10259 10262 10263 10262 10261 10262 10264 10267 10267 10267 10267 10268 10268 10267 10266 10265 10265 10266 10265 10263 10263 10265 10267 10269 10270
9974 9975 9977 9979 9980 9982 9983 9986 9989 9992 9996 10000 10004 10008 10012 10017 10022 10028 10034 10040 10046 10053 10060 10067 10074 10081 10088 10094 10100 10107 10113 10119 10124 10129 10134 10140 10145 10150 10153 10157 10162 10168 10175 10183 10190 10194 10197 10201 10206 10210 10213 10217 10221 10225 10228 10232 10235 10239 10243 10247 10249 10250 10249 10249 10250 10253 10256 10257 10256 10256 10257 10257 10256 10255 10254 10254 10254 10254 10252 10252 10253 10255 10256 10257 10257
9970 9971 9973 9975 9976 9978 9981 9983 9986 9989 9993 9997 10001 10005 10009 10014 10019 10025 10030 10036 10043 10050 10057 10064 10070 10077 10084 10090 10096 10102 10108 10113 10118 10124 10129 10134 10138 10141 10145 10151 10159 10167 10175 10182 10186 10188 10192 10196 10199 10202 10206 10209 10212 10216 10220 10223 10226 10230 10233 10235 10237 10237 10238 10239 10242 10244 10244 10245 10245 10246 10246 10245 10245 10244 10243 10242 10242 10242 10242 10242 10243 10243 10243 10242 10242
9966 9967 9969 9971 9973 9975 9977 9980 9983 9986 9989 9994 9999 10003 10006 10011 10016 10022 10028 10034 10041 10048 10054 10060 10067 10073 10079 10084 10090 10096 10102 10107 10112 10117 10123 10127 10130 10134 10140 10149 10157 10164 10170 10175 10179 10182 10186 10189 10191 10194 10197 10200 10203 10207 10210 10213 10216 10219 10221 10223 10224 10225 10227 10229 10231 10231 10232 10232 10233 10233 10233 10234 10235 10234 10232 10231 10231 10231 10231 10231 10230 10229 10229 10229 10228
9962 9963 9965 9967 9969 9971 9973 9976 9979 9983 9986 9991 9996 10000 10004 10009 10014 10020 10026 10032 10040 10046 10052 10058 10064 10070 10075 10079 10084 10089 10093 10098 10103 10108 10113 10117 10121 10127 10135 10142 10147 10153 10160 10165 10168 10172 10175 10179 10182 10184 10187 10190 10193 10196 10200 10203 10206 10208 10210 10211 10212 10214 10216 10218 10218 10218 10218 10219 10220 10222 10223 10224 10224 10223 10221 10220 10220 10220 10220 10218 10216 10216 10216 10215 10215
9958 9959 9961 9962 9964 9967 9969 9972 9976 9979 9983 9988 9992 9996 10001 10006 10012 10018 10024 10029 10035 10042 10048 10054 10059 10064 10068 10073 10077 10082 10085 10090 10094 10099 10104 10108 10115 10123 10130 10134 10138 10144 10150 10155 10158 10161 10165 10169 10172 10174 10177 10180 10183 10186 10189 10192 10195 10197 10199 10200 10201 10202 10204 10204 10204 10206 10208 10209 10210 10212 10213 10212 10212 10211 10210 10209 10208 10207 10206 10205 10203 10203 10202 10202 10202
9954 9955 9956 9958 9960 9962 9965 9969 9972 9976 9980 9985 9989 9993 9998 10003 10009 10015 10020 10025 10030 10036 10042 10047 10052 10056 10061 10066 10071 10076 10080 10084 10089 10094 10099 10106 10114 10121 10127 10130 10133 10138 10142 10145 10149 10152 10156 10160 10163 10165 10168 10171 10173 10177 10180 10182 10184 10186 10187 10187 10188 10189 10191 10193 10195 10196 10198 10198 10199 10200 10199 10199 10199 10198 10197 10196 10195 10194 10193 10192 10191 10190 10189 10189 10189
9950 9951 9952 9954 9957 9959 9961 9965 9968 9972 9976 9980 9985 9990 9995 10000 10006 10011 10015 10020 10025 10030 10035 10039 10044 10049 10054 10059 10064 10069 10074 10078 10083 10088 10093 10100 10107 10113 10118 10122 10126 10129 10133 10136 10140 10143 10147 10152 10154 10156 10159 10162 10165 10168 10171 10172 10173 10174 10175 10175 10176 10178 10181 10184 10184 10185 10185 10185 10186 10187 10187 10187 10187 10186 10185 10185 10183 10181 10180 10178 10177 10176 10176 10176 10176
9946 9947 9948 9950 9953 9955 9958 9961 9964 9968 9972 9976 9980 9985 9991 9996 10001 10006 10011 10016 10021 10024 10029 10034 10039 10043 10047 10052 10056 10061 10066 10070 10075 10079 10084 10090 10095 10100 10105 10110 10114 10118 10121 10124 10128 10132 10137 10141 10144 10146 10150 10153 10155 10158 10160 10161 10161 10162 10163 10163 10165 10168 10171 10172 10172 10172 10172 10172 10173 10174 10175 10175 10174 10174 10173 10171 10169 10167 10166 10165 10164 10164 10163 10162 10162
9941 9943 9944 9946 9948 9951 9954 9957 9960 9964 9968 9972 9976 9980 9985 9990 9995 10000 10005 10010 10014 10018 10023 10028 10032 10035 10039 10044 10048 10052 10056 10061 10065 10069 10074 10078 10083 10087 10093 10098 10102 10106 10109 10112 10116 10120 10124 10129 10132 10135 10138 10141 10143 10145 10147 10148 10149 10150 10151 10152 10153 10156 10159 10160 10160 10159 10159 10159 10160 10162 10162 10162 10161 10160 10158 10156 10155 10153 10152 10152 10151 10151 10149 10149 10149
9936 9938 9939 9941 9943 9946 9949 9953 9956 9959 9963 9967 9971 9975 9979 9984 9988 9992 9997 10002 10006 10010 10015 10020 10024 10027 10031 10035 10039 10043 10047 10051 10055 10059 10063 10066 10070 10074 10079 10084 10089 10093 10097 10100 10103 10108 10112 10117 10120 10123 10125 10128 10130 10132 10134 10136 10137 10138 10139 10140 10142 10145 10147 10147 10147 10147 10147 10147 10147 10148 10149 10148 10146 10143 10142 10141 10141 10140 10139 10138 10138 10137 10136 10136 10137
9930 9932 9934 9935 9938 9941 9944 9947 9951 9954 9958 9962 9966 9970 9974 9977 9981 9985 9989 9993 9997 10001 10005 10010 10014 10018 10022 10025 10029 10033 10037 10041 10045 10049 10053 10057 10060 10064 10068 10072 10076 10080 10083 10087 10091 10095 10100 10104 10108 10111 10113 10116 10119 10121 10122 10124 10125 10127 10128 10129 10131 10133 10134 10134 10134 10135 10134 10134 10134 10134 10134 10132 10130 10127 10126 10127 10127 10127 10127 10126 10125 10124 10123 10122 10122
9924 9926 9928 9930 9932 9935 9938 9941 9945 9948 9952 9955 9959 9963 9967 9971 9975 9978 9982 9986 9989 9993 9997 10001 10005 10009 10013 10017 10021 10024 10028 10032 10036 10040 10044 10048 10051 10054 10058 10061 10064 10068 10071 10074 10078 10083 10087 10091 10095 10098 10101 10104 10107 10109 10111 10112 10113 10115 10116 10117 10118 10119 10121 10121 10121 10121 10120 10120 10120 10120 10119 10118 10115 10114 10113 10113 10114 10114 10113 10113 10111 10110 10108 10107 10106
9917 9919 9921 9923 9925 9928 9931 9935 9938 9942 9945 9949 9952 9957 9961 9965 9969 9972 9976 9980 9983 9987 9990 9994 9998 10001 10005 10009 10012 10016 10020 10023 10026 10030 10034 10037 10041 10044 10047 10050 10053 10056 10060 10063 10067 10071 10075 10079 10082 10086 10089 10091 10094 10096 10098 10099 10101 10102 10103 10104 10105 10106 10107 10107 10107 10107 10106 10106 10106 10106 10105 10104 10103 10101 10101 10101 10100 10099 10099 10098 10096 10094 10092 10090 10089
9910 9912 9914 9916 9918 9920 9923 9927 9931 9934 9938 9942 9945 9950 9954 9957 9961 9964 9968 9972 9976 9980 9983 9987 9990 9994 9997 10000 10004 10007 10011 10014 10017 10020 10023 10026 10029 10032 10035 10038 10042 10045 10048 10051 10055 10059 10063 10067 10070 10073 10076 10079 10081 10083 10085 10087 10088 10089 10091 10092 10092 10093 10093 10093 10093 10093 10093 10093 10092 10091 10090 10090 10089 10088 10088 10087 10085 10084 10083 10081 10079 10078 10077 10075 10074
9902 9905 9907 9909 9911 9913 9915 9918 9922 9926 9930 9934 9938 9942 9946 9949 9952 9955 9959 9962 9966 9970 9974 9978 9982 9985 9989 9992 9995 9998 10001 10004 10007 10010 10013 10015 10018 10021 10024 10027 10030 10033 10036 10039 10042 10046 10049 10053 10056 10059 10062 10064 10067 10069 10071 10073 10075 10076 10077 10078 10078 10079 10079 10079 10079 10079 10078 10078 10077 10076 10075 10074 10073 10072 10072 10071 10069 10068 10067 10065 10064 10063 10062 10060 10059
9894 9897 9899 9901 9904 9905 9907 9910 9913 9916 9920 9924 9928 9933 9937 9939 9942 9946 9949 9953 9956 9960 9964 9968 9972 9976 9980 9983 9986 9989 9993 9995 9998 10001 10004 10006 10009 10012 10014 10017 10020 10022 10026 10029 10031 10034 10037 10040 10043 10045 10048 10050 10052 10054 10056 10058 10059 10060 10061 10062 10062 10063 10063 10063 10062 10062 10061 10060 10059 10058 10057 10056 10056 10055 10054 10054 10053 10052 10051 10050 10048 10047 10046 10045 10044
9886 9888 9890 9893 9895 9897 9899 9902 9904 9907 9911 9915 9918 9922 9926 9929 9932 9936 9940 9943 9947 9950 9954 9957 9961 9965 9969 9973 9976 9979 9983 9986 9989 9992 9994 9997 10000 10002 10005 10007 10010 10012 10015 10018 10021 10024 10026 10028 10030 10033 10035 10036 10038 10040 10041 10042 10044 10044 10045 10046 10046 10046 10046 10045 10045 10045 10044 10043 10042 10042 10041 10040 10040 10039 10039 10039 10038 10037 10036 10035 10034 10032 10032 10031 10030
9876 9879 9881 9884 9886 9889 9891 9893 9896 9898 9901 9904 9908 9912 9915 9919 9922 9925 9929 9933 9936 9940 9943 9946 9950 9954 9958 9962 9965 9968 9972 9974 9977 9981 9983 9986 9989 9991 9994 9996 9999 10001 10003 10006 10008 10011 10013 10016 10018 10020 10022 10024 10025 10027 10028 10029 10030 10030 10031 10031 10031 10031 10031 10031 10031 10031 10031 10030 10029 10029 10028 10027 10027 10026 10025 10024 10023 10022 10021 10020 10018 10017 10016 10015 10013